ASK224 EDDK-KSDF

Flight info

Callsign ASK224
Flight time N/A
Altitude 34000
Route NVO3F/13L NVO Y868 SOGRI L608 DENUT L610 HEMEL T420 TNT UL28 PENIL M144 BAGSO DCT LIMRI/M081F340 NATE TUDEP/N0478F340 N534A ANATI Q812 OBTEK DCT PENTU Q824 YUL DCT SSENA DCT ART DCT JHW Q29 DORET DCT UKATS DLAMP8
Aircraft A343/H-SDE2E3FGHIJ4J5M1RWXY/LB1D1

Departure

Time 2026-05-04 14:51
Airport Cologne Bonn Airport (EDDK)

Arrival

Time N/A
Airport Louisville Muhammad Ali International Airport (KSDF)
Time Latitude Longitude Altitude Speed Heading
2026-05-04 14:51 50.75568 7.12724 5050 ft 275 kts 280°
2026-05-04 14:51 50.76007 7.09765 5673 ft 279 kts 280°
2026-05-04 14:51 50.76441 7.06759 6262 ft 282 kts 279°
2026-05-04 14:52 50.76868 7.03721 6878 ft 284 kts 279°
2026-05-04 14:52 50.77293 7.00651 7447 ft 288 kts 280°
2026-05-04 14:52 50.77720 6.97539 8043 ft 291 kts 280°
2026-05-04 14:52 50.78148 6.94396 8638 ft 293 kts 280°
2026-05-04 14:53 50.78576 6.91239 9241 ft 295 kts 280°
2026-05-04 14:53 50.79007 6.88054 9808 ft 298 kts 280°
2026-05-04 14:53 50.79440 6.84837 10244 ft 304 kts 280°
2026-05-04 14:53 50.79888 6.81499 10454 ft 318 kts 280°
2026-05-04 14:54 50.80355 6.78008 10644 ft 331 kts 280°
2026-05-04 14:54 50.80840 6.74379 10826 ft 344 kts 280°
2026-05-04 14:54 50.81343 6.70609 11014 ft 357 kts 280°
2026-05-04 14:54 50.81860 6.66727 11303 ft 365 kts 280°
2026-05-04 14:55 50.82285 6.62750 11747 ft 368 kts 275°
2026-05-04 14:55 50.82484 6.58703 12193 ft 371 kts 271°
2026-05-04 14:55 50.82553 6.54608 12635 ft 375 kts 270°
2026-05-04 14:55 50.82566 6.50456 13094 ft 379 kts 269°
2026-05-04 14:56 50.82568 6.46262 13661 ft 382 kts 269°
2026-05-04 14:56 50.82578 6.42058 14174 ft 385 kts 269°
2026-05-04 14:56 50.82602 6.37813 14681 ft 387 kts 269°
2026-05-04 14:56 50.82638 6.33552 15216 ft 389 kts 269°
2026-05-04 14:57 50.82680 6.29265 15768 ft 392 kts 269°
2026-05-04 14:57 50.82722 6.24934 16289 ft 394 kts 269°
2026-05-04 14:57 50.82767 6.20589 16763 ft 396 kts 269°
2026-05-04 14:57 50.82812 6.16222 17217 ft 398 kts 269°
2026-05-04 14:58 50.82857 6.11831 17658 ft 400 kts 269°
2026-05-04 14:58 50.82898 6.07410 18026 ft 405 kts 269°
2026-05-04 14:58 50.82938 6.02924 18344 ft 410 kts 269°
2026-05-04 14:58 50.82963 5.98413 18748 ft 411 kts 268°
2026-05-04 14:59 50.82906 5.93888 19178 ft 411 kts 266°
2026-05-04 14:59 50.82800 5.89367 19595 ft 412 kts 265°
2026-05-04 14:59 50.82546 5.80288 20392 ft 415 kts 265°
2026-05-04 15:00 50.82422 5.75723 20780 ft 416 kts 265°
2026-05-04 15:00 50.82305 5.71140 21167 ft 418 kts 265°
2026-05-04 15:00 50.82193 5.66539 21555 ft 419 kts 265°
2026-05-04 15:01 50.81978 5.57277 22199 ft 425 kts 265°
2026-05-04 15:01 50.81869 5.52567 22538 ft 427 kts 265°
2026-05-04 15:01 50.81760 5.47901 22895 ft 428 kts 265°
2026-05-04 15:01 50.81647 5.43198 23239 ft 429 kts 265°
2026-05-04 15:02 50.81531 5.38472 23562 ft 431 kts 265°
2026-05-04 15:02 50.81414 5.33776 23831 ft 432 kts 265°
2026-05-04 15:02 50.81293 5.28970 24109 ft 434 kts 265°
2026-05-04 15:02 50.81172 5.24260 24384 ft 435 kts 264°
2026-05-04 15:03 50.81048 5.19475 24660 ft 436 kts 264°
2026-05-04 15:03 50.80921 5.14671 24957 ft 438 kts 265°
2026-05-04 15:03 50.80797 5.09858 25139 ft 442 kts 266°
2026-05-04 15:03 50.80938 5.04979 25378 ft 446 kts 275°
2026-05-04 15:04 50.81544 5.00134 25632 ft 450 kts 281°
2026-05-04 15:04 50.82342 4.95348 25874 ft 452 kts 283°
2026-05-04 15:04 50.83225 4.90563 26099 ft 454 kts 284°
2026-05-04 15:04 50.84148 4.85777 26337 ft 456 kts 284°
2026-05-04 15:05 50.85082 4.80984 26574 ft 457 kts 284°
2026-05-04 15:05 50.86019 4.76161 26797 ft 459 kts 284°
2026-05-04 15:05 50.86947 4.71329 27028 ft 460 kts 283°
2026-05-04 15:05 50.87870 4.66470 27258 ft 461 kts 283°
2026-05-04 15:06 50.88787 4.61605 27477 ft 462 kts 283°
2026-05-04 15:06 50.89754 4.56728 27682 ft 466 kts 287°
2026-05-04 15:06 50.91077 4.52014 27888 ft 471 kts 295°
2026-05-04 15:07 50.94349 4.42969 28283 ft 475 kts 297°
2026-05-04 15:07 50.96062 4.38495 28506 ft 477 kts 298°
2026-05-04 15:07 50.97808 4.33983 28693 ft 479 kts 298°
2026-05-04 15:07 50.99552 4.29478 28861 ft 481 kts 298°
2026-05-04 15:08 51.01297 4.24948 29058 ft 482 kts 298°
2026-05-04 15:08 51.03044 4.20392 29286 ft 482 kts 297°
2026-05-04 15:08 51.04780 4.15841 29543 ft 482 kts 297°
2026-05-04 15:08 51.06511 4.11287 29791 ft 481 kts 297°
2026-05-04 15:09 51.08241 4.06724 30028 ft 481 kts 297°
2026-05-04 15:09 51.09964 4.02167 30262 ft 481 kts 297°
2026-05-04 15:09 51.11682 3.97616 30529 ft 479 kts 297°
2026-05-04 15:10 51.15102 3.88535 30976 ft 477 kts 296°
2026-05-04 15:10 51.16806 3.84000 31195 ft 476 kts 296°
2026-05-04 15:10 51.20195 3.74951 31606 ft 476 kts 296°
2026-05-04 15:11 51.21871 3.70401 31772 ft 474 kts 294°
2026-05-04 15:11 51.23258 3.65672 31975 ft 469 kts 286°
2026-05-04 15:11 51.24223 3.60743 32173 ft 463 kts 279°
2026-05-04 15:11 51.24987 3.55757 32376 ft 461 kts 278°
2026-05-04 15:12 51.25680 3.50768 32559 ft 460 kts 277°
2026-05-04 15:12 51.26336 3.45783 32763 ft 459 kts 277°
2026-05-04 15:12 51.26977 3.40797 32953 ft 458 kts 277°
2026-05-04 15:12 51.27616 3.35820 33134 ft 457 kts 277°
2026-05-04 15:13 51.28245 3.30853 33323 ft 456 kts 276°
2026-05-04 15:13 51.28872 3.25890 33489 ft 456 kts 276°
2026-05-04 15:13 51.29498 3.20938 33711 ft 454 kts 276°
2026-05-04 15:13 51.30124 3.16002 33942 ft 452 kts 276°
2026-05-04 15:14 51.30737 3.11165 33999 ft 447 kts 276°
2026-05-04 15:14 51.31964 3.01489 33997 ft 439 kts 276°
2026-05-04 15:15 51.33153 2.91996 33976 ft 439 kts 276°
2026-05-04 15:15 51.34344 2.82416 33986 ft 439 kts 276°
2026-05-04 15:16 51.36127 2.68032 33985 ft 440 kts 276°
2026-05-04 15:17 51.37894 2.53636 33985 ft 440 kts 276°
2026-05-04 15:17 51.39643 2.39225 34011 ft 439 kts 276°
2026-05-04 15:18 51.40809 2.29540 33989 ft 440 kts 277°
2026-05-04 15:19 51.42560 2.15101 33991 ft 441 kts 277°
2026-05-04 15:19 51.44312 2.00705 33991 ft 440 kts 277°
2026-05-04 15:20 51.45466 1.91066 34008 ft 440 kts 277°
2026-05-04 15:20 51.46595 1.81406 33987 ft 441 kts 276°
2026-05-04 15:21 51.47706 1.71727 33991 ft 441 kts 276°
2026-05-04 15:22 51.49176 1.58842 33993 ft 441 kts 276°
2026-05-04 15:22 51.50823 1.44310 33996 ft 441 kts 276°
2026-05-04 15:23 51.51910 1.34602 33995 ft 443 kts 276°
2026-05-04 15:23 51.52994 1.24855 33996 ft 443 kts 276°
2026-05-04 15:24 51.55145 1.05358 33996 ft 443 kts 276°
2026-05-04 15:25 51.56203 0.95607 34011 ft 443 kts 276°
2026-05-04 15:26 51.57782 0.80905 34017 ft 445 kts 276°
2026-05-04 15:26 51.59342 0.66200 34014 ft 445 kts 276°
2026-05-04 15:27 51.60891 0.51495 34023 ft 445 kts 276°
2026-05-04 15:28 51.62413 0.36755 34020 ft 446 kts 276°
2026-05-04 15:29 51.63922 0.21968 34006 ft 446 kts 276°
2026-05-04 15:30 51.67990 0.02987 34021 ft 453 kts 291°
2026-05-04 15:30 51.71912 -0.10862 34093 ft 453 kts 292°
2026-05-04 15:31 51.75807 -0.24747 34074 ft 453 kts 291°
2026-05-04 15:32 51.80050 -0.38386 34050 ft 456 kts 303°
2026-05-04 15:32 51.84535 -0.45628 34048 ft 459 kts 324°
2026-05-04 15:34 51.98175 -0.59117 34041 ft 461 kts 328°
2026-05-04 15:34 52.04910 -0.65658 34050 ft 461 kts 327°
2026-05-04 15:35 52.11486 -0.72126 34046 ft 463 kts 327°
2026-05-04 15:36 52.14777 -0.75367 34047 ft 463 kts 328°
2026-05-04 15:36 52.18170 -0.78714 34044 ft 463 kts 327°
2026-05-04 15:37 52.23673 -0.84164 34045 ft 463 kts 327°
2026-05-04 15:37 52.29180 -0.89633 34042 ft 463 kts 328°
2026-05-04 15:38 52.34672 -0.95101 34043 ft 462 kts 328°
2026-05-04 15:38 52.40159 -1.00579 34053 ft 462 kts 328°
2026-05-04 15:39 52.45643 -1.06066 34038 ft 461 kts 328°
2026-05-04 15:40 52.53853 -1.14313 34029 ft 461 kts 329°
2026-05-04 15:40 52.59312 -1.19811 34023 ft 460 kts 329°
2026-05-04 15:41 52.64756 -1.25320 34019 ft 459 kts 329°
2026-05-04 15:41 52.70194 -1.30842 34023 ft 460 kts 328°
2026-05-04 15:42 52.75639 -1.36377 34046 ft 459 kts 328°
2026-05-04 15:42 52.81066 -1.41927 34043 ft 458 kts 329°
2026-05-04 15:43 52.86476 -1.47473 34048 ft 457 kts 329°
2026-05-04 15:43 52.91881 -1.53027 34051 ft 457 kts 330°
2026-05-04 15:44 52.97288 -1.58597 34050 ft 458 kts 330°
2026-05-04 15:44 53.02688 -1.64177 34063 ft 457 kts 331°
2026-05-04 15:45 53.08085 -1.69770 34068 ft 457 kts 331°
2026-05-04 15:45 53.13475 -1.75377 34074 ft 457 kts 331°
2026-05-04 15:46 53.13668 -1.75579 34069 ft 457 kts 331°
2026-05-04 15:48 53.17068 -1.79127 34063 ft 457 kts 331°
2026-05-04 15:49 53.22222 -1.85333 34065 ft 461 kts 318°
2026-05-04 15:49 53.26089 -1.93872 34059 ft 465 kts 301°
2026-05-04 15:50 53.29087 -2.03483 34043 ft 467 kts 298°
2026-05-04 15:50 53.31931 -2.13240 34050 ft 467 kts 298°
2026-05-04 15:51 53.34775 -2.23020 34041 ft 468 kts 298°
2026-05-04 15:51 53.37059 -2.33245 34047 ft 470 kts 290°
2026-05-04 15:52 53.39071 -2.43655 34049 ft 470 kts 289°
2026-05-04 15:52 53.41034 -2.54100 34049 ft 470 kts 289°
2026-05-04 15:53 53.42994 -2.64567 34052 ft 470 kts 289°
2026-05-04 15:53 53.44952 -2.75028 34059 ft 470 kts 289°
2026-05-04 15:54 53.46903 -2.85492 34063 ft 470 kts 289°
2026-05-04 15:54 53.48850 -2.95971 34063 ft 470 kts 289°
2026-05-04 15:55 53.50782 -3.06454 34062 ft 470 kts 289°
2026-05-04 15:55 53.52704 -3.16960 34070 ft 470 kts 289°
2026-05-04 15:56 53.54616 -3.27462 34062 ft 470 kts 289°
2026-05-04 15:56 53.56522 -3.37983 34066 ft 470 kts 289°
2026-05-04 15:57 53.58420 -3.48511 34062 ft 470 kts 289°
2026-05-04 15:57 53.60310 -3.59048 34062 ft 470 kts 289°
2026-05-04 15:58 53.61684 -3.69817 34060 ft 472 kts 278°
2026-05-04 15:58 53.62261 -3.80843 34059 ft 473 kts 276°
2026-05-04 15:59 53.62697 -3.91901 34058 ft 473 kts 275°
2026-05-04 15:59 53.63118 -4.02970 34059 ft 473 kts 275°
2026-05-04 16:00 53.63541 -4.13963 34061 ft 473 kts 275°
2026-05-04 16:00 53.63961 -4.25031 34062 ft 472 kts 275°
2026-05-04 16:01 53.64370 -4.36056 34062 ft 471 kts 275°
2026-05-04 16:01 53.64770 -4.47078 34061 ft 471 kts 275°
2026-05-04 16:02 53.65161 -4.58100 34062 ft 471 kts 275°
2026-05-04 16:03 53.65718 -4.74578 34061 ft 467 kts 275°
2026-05-04 16:03 53.66078 -4.85494 34064 ft 466 kts 275°
2026-05-04 16:04 53.66436 -4.96406 34070 ft 466 kts 275°
2026-05-04 16:04 53.66607 -5.01799 34068 ft 466 kts 275°
2026-05-04 16:05 53.66882 -5.10600 34069 ft 466 kts 274°
2026-05-04 16:06 53.67163 -5.19733 34073 ft 466 kts 274°
2026-05-04 16:07 53.67634 -5.36236 34071 ft 465 kts 274°
2026-05-04 16:07 53.67696 -5.50999 34069 ft 466 kts 263°
2026-05-04 16:08 53.67151 -5.56387 34072 ft 466 kts 260°
2026-05-04 16:09 53.63868 -5.81318 34068 ft 468 kts 258°
2026-05-04 16:10 53.60963 -6.02658 34080 ft 467 kts 258°
2026-05-04 16:11 53.58042 -6.23988 34059 ft 468 kts 258°
2026-05-04 16:12 53.53550 -6.56186 34057 ft 473 kts 258°
2026-05-04 16:13 53.50494 -6.77699 34069 ft 473 kts 258°
2026-05-04 16:14 53.47407 -6.99138 34067 ft 472 kts 257°
2026-05-04 16:16 53.43494 -7.25889 34064 ft 472 kts 257°
2026-05-04 16:17 53.39544 -7.52438 34066 ft 469 kts 257°
2026-05-04 16:18 53.36346 -7.73622 34060 ft 469 kts 257°
2026-05-04 16:19 53.32314 -7.99929 34073 ft 468 kts 257°
2026-05-04 16:20 53.28215 -8.26248 34070 ft 467 kts 257°
2026-05-04 16:22 53.24074 -8.52412 34082 ft 466 kts 257°
2026-05-04 16:23 53.19038 -8.83693 34092 ft 463 kts 257°
2026-05-04 16:25 53.13949 -9.14727 34094 ft 463 kts 256°
2026-05-04 16:26 53.07933 -9.50705 34105 ft 460 kts 256°
2026-05-04 16:28 53.03550 -9.76459 34339 ft 467 kts 256°
2026-05-04 16:28 53.00862 -9.92066 34587 ft 469 kts 256°
2026-05-04 16:29 52.97238 -10.12888 35033 ft 469 kts 256°
2026-05-04 16:30 52.94504 -10.28437 35466 ft 466 kts 255°
2026-05-04 16:31 52.92691 -10.38679 35620 ft 467 kts 255°
2026-05-04 16:31 52.89933 -10.54146 35891 ft 467 kts 255°
2026-05-04 16:32 52.87154 -10.69597 36121 ft 467 kts 255°
2026-05-04 16:33 52.83419 -10.90157 36134 ft 465 kts 255°
2026-05-04 16:34 52.80602 -11.05516 36141 ft 465 kts 255°
2026-05-04 16:35 52.74924 -11.36091 36140 ft 463 kts 254°
2026-05-04 16:36 52.72064 -11.51301 36150 ft 463 kts 254°
2026-05-04 16:37 52.69184 -11.66498 36142 ft 462 kts 254°
2026-05-04 16:38 52.65327 -11.86657 36157 ft 461 kts 254°
2026-05-04 16:39 52.60424 -12.11986 36155 ft 465 kts 254°
2026-05-04 16:40 52.56469 -12.32168 36157 ft 463 kts 253°
2026-05-04 16:41 52.51484 -12.57317 36158 ft 463 kts 253°
2026-05-04 16:43 52.46482 -12.82227 36164 ft 460 kts 253°
2026-05-04 16:43 52.43450 -12.97175 36170 ft 461 kts 253°
2026-05-04 16:45 52.37365 -13.26833 36173 ft 456 kts 252°
2026-05-04 16:46 52.32263 -13.51370 36175 ft 455 kts 252°
2026-05-04 16:47 52.28166 -13.70850 36181 ft 452 kts 252°
2026-05-04 16:48 52.24046 -13.90263 36184 ft 453 kts 252°
2026-05-04 16:49 52.19904 -14.09587 36189 ft 450 kts 252°
2026-05-04 16:50 52.15748 -14.28799 36198 ft 449 kts 252°
2026-05-04 16:51 52.12610 -14.43187 36196 ft 449 kts 251°
2026-05-04 16:52 52.08379 -14.62427 36199 ft 455 kts 252°
2026-05-04 16:53 52.05524 -14.75307 36200 ft 455 kts 252°
2026-05-04 16:54 52.01388 -14.96364 36209 ft 450 kts 264°
2026-05-04 16:55 52.03174 -15.14499 36210 ft 447 kts 289°
2026-05-04 16:55 52.05299 -15.23914 36208 ft 446 kts 290°
2026-05-04 16:56 52.10646 -15.47571 36208 ft 446 kts 290°
2026-05-04 16:57 52.13799 -15.61903 36214 ft 447 kts 289°
2026-05-04 16:58 52.17948 -15.80904 36221 ft 446 kts 289°
2026-05-04 17:00 52.24118 -16.09484 36224 ft 446 kts 289°
2026-05-04 17:01 52.29210 -16.33376 36224 ft 446 kts 289°
2026-05-04 17:02 52.33244 -16.52505 36232 ft 445 kts 289°
2026-05-04 17:03 52.36253 -16.66892 36234 ft 446 kts 289°
2026-05-04 17:03 52.39249 -16.81320 36235 ft 446 kts 289°
2026-05-04 17:04 52.43213 -17.00575 36236 ft 446 kts 288°
2026-05-04 17:05 52.47145 -17.19863 36245 ft 446 kts 288°
2026-05-04 17:06 52.50072 -17.34341 36243 ft 444 kts 288°
2026-05-04 17:07 52.52643 -17.47149 36251 ft 443 kts 288°
2026-05-04 17:07 52.54870 -17.58307 36253 ft 443 kts 288°
2026-05-04 17:08 52.57738 -17.72777 36255 ft 445 kts 288°
2026-05-04 17:09 52.59646 -17.82462 36253 ft 445 kts 288°
2026-05-04 17:09 52.61540 -17.92129 36262 ft 444 kts 288°
2026-05-04 17:10 52.66239 -18.16315 36265 ft 445 kts 288°
2026-05-04 17:11 52.68111 -18.26035 36266 ft 446 kts 288°
2026-05-04 17:12 52.70904 -18.40636 36273 ft 445 kts 288°
2026-05-04 17:13 52.75513 -18.64974 36278 ft 445 kts 287°
2026-05-04 17:14 52.79171 -18.84516 36277 ft 445 kts 287°
2026-05-04 17:15 52.81874 -18.99096 36278 ft 443 kts 287°
2026-05-04 17:16 52.85462 -19.18620 36292 ft 444 kts 287°
2026-05-04 17:17 52.89029 -19.38239 36294 ft 444 kts 287°
2026-05-04 17:18 52.92551 -19.57819 36297 ft 444 kts 287°
2026-05-04 17:19 52.96052 -19.77496 36298 ft 446 kts 286°
2026-05-04 17:20 52.99496 -19.97238 36303 ft 445 kts 283°
2026-05-04 17:20 53.00567 -20.12532 36307 ft 446 kts 275°
2026-05-04 17:21 53.01361 -20.33096 36311 ft 446 kts 275°
2026-05-04 17:22 53.01749 -20.43355 36311 ft 445 kts 275°
2026-05-04 17:23 53.02517 -20.63794 36319 ft 445 kts 275°
2026-05-04 17:24 53.03073 -20.79247 36316 ft 445 kts 275°
2026-05-04 17:25 53.03777 -20.99654 36323 ft 444 kts 275°
2026-05-04 17:26 53.04448 -21.20124 36325 ft 444 kts 275°
2026-05-04 17:27 53.05237 -21.45719 36340 ft 444 kts 274°
2026-05-04 17:28 53.05827 -21.66155 36338 ft 442 kts 274°
2026-05-04 17:29 53.06645 -21.96770 36340 ft 441 kts 274°
2026-05-04 17:31 53.07266 -22.22228 36344 ft 441 kts 274°
2026-05-04 17:32 53.07830 -22.47627 36345 ft 441 kts 273°
2026-05-04 17:33 53.08244 -22.67993 36357 ft 440 kts 273°
2026-05-04 17:34 53.08622 -22.88316 36355 ft 439 kts 272°
2026-05-04 17:35 53.09046 -23.13703 36361 ft 439 kts 272°
2026-05-04 17:36 53.09200 -23.23850 36360 ft 439 kts 272°
2026-05-04 17:36 53.09345 -23.34004 36360 ft 439 kts 272°
2026-05-04 17:37 53.09482 -23.44156 36367 ft 439 kts 272°
2026-05-04 17:37 53.09611 -23.54303 36369 ft 439 kts 272°
2026-05-04 17:38 53.09730 -23.64452 36362 ft 438 kts 271°
2026-05-04 17:38 53.09841 -23.74594 36368 ft 438 kts 271°
2026-05-04 17:39 53.09991 -23.89728 36374 ft 438 kts 271°
2026-05-04 17:39 53.10080 -23.99852 36369 ft 437 kts 271°
2026-05-04 17:40 53.10160 -24.09973 36372 ft 437 kts 271°
2026-05-04 17:40 53.10233 -24.20090 36371 ft 437 kts 271°
2026-05-04 17:41 53.10296 -24.30207 36371 ft 437 kts 271°
2026-05-04 17:41 53.10351 -24.40312 36376 ft 437 kts 271°
2026-05-04 17:42 53.10397 -24.50427 36374 ft 437 kts 271°
2026-05-04 17:42 53.10435 -24.60536 36376 ft 437 kts 271°
2026-05-04 17:43 53.10460 -24.68940 36370 ft 437 kts 270°
2026-05-04 17:43 53.10482 -24.79052 36383 ft 437 kts 270°
2026-05-04 17:44 53.10495 -24.89162 36380 ft 437 kts 270°
2026-05-04 17:44 53.10500 -24.99267 36379 ft 437 kts 270°
2026-05-04 17:45 53.10496 -25.09376 36383 ft 437 kts 270°
2026-05-04 17:45 53.10484 -25.19483 36379 ft 437 kts 270°
2026-05-04 17:46 53.10463 -25.29578 36384 ft 436 kts 270°
2026-05-04 17:46 53.10434 -25.39683 36385 ft 436 kts 270°
2026-05-04 17:47 53.10396 -25.49782 36383 ft 436 kts 270°
2026-05-04 17:47 53.10349 -25.59875 36382 ft 436 kts 270°
2026-05-04 17:48 53.10295 -25.69973 36384 ft 436 kts 270°
2026-05-04 17:48 53.10231 -25.80074 36379 ft 436 kts 269°
2026-05-04 17:49 53.10160 -25.90105 36386 ft 436 kts 269°
2026-05-04 17:49 53.10079 -26.00202 36389 ft 437 kts 269°
2026-05-04 17:50 53.09990 -26.10304 36389 ft 437 kts 269°
2026-05-04 17:50 53.09891 -26.20468 36389 ft 437 kts 269°
2026-05-04 17:51 53.09785 -26.30571 36389 ft 437 kts 269°
2026-05-04 17:51 53.09671 -26.40601 36381 ft 437 kts 269°
2026-05-04 17:52 53.09548 -26.50701 36385 ft 437 kts 269°
2026-05-04 17:52 53.09416 -26.60809 36390 ft 437 kts 269°
2026-05-04 17:53 53.09275 -26.70906 36385 ft 437 kts 269°
2026-05-04 17:53 53.09126 -26.81014 36396 ft 437 kts 269°
2026-05-04 17:54 53.08969 -26.91114 36393 ft 437 kts 268°
2026-05-04 17:54 53.08803 -27.01207 36387 ft 437 kts 268°
2026-05-04 17:55 53.08628 -27.11311 36388 ft 437 kts 268°
2026-05-04 17:55 53.08445 -27.21414 36386 ft 437 kts 268°
2026-05-04 17:56 53.08253 -27.31509 36390 ft 437 kts 268°
2026-05-04 17:56 53.08053 -27.41604 36390 ft 437 kts 268°
2026-05-04 17:57 53.07843 -27.51704 36393 ft 437 kts 268°
2026-05-04 17:57 53.07626 -27.61796 36390 ft 437 kts 268°
2026-05-04 17:58 53.07400 -27.71893 36399 ft 437 kts 268°
2026-05-04 17:58 53.07166 -27.81985 36394 ft 437 kts 268°
2026-05-04 17:59 53.06923 -27.92073 36399 ft 437 kts 268°
2026-05-04 18:00 53.06542 -28.07208 36396 ft 437 kts 268°
2026-05-04 18:00 53.06280 -28.17229 36399 ft 437 kts 267°
2026-05-04 18:01 53.06005 -28.27391 36399 ft 437 kts 267°
2026-05-04 18:01 53.05725 -28.37412 36395 ft 437 kts 267°
2026-05-04 18:02 53.05287 -28.52549 36400 ft 437 kts 267°
2026-05-04 18:02 53.04984 -28.62632 36389 ft 437 kts 267°
2026-05-04 18:03 53.04673 -28.72725 36401 ft 438 kts 267°
2026-05-04 18:03 53.04352 -28.82834 36402 ft 438 kts 267°
2026-05-04 18:04 53.04023 -28.92935 36391 ft 438 kts 267°
2026-05-04 18:05 53.03513 -29.08082 36404 ft 438 kts 267°
2026-05-04 18:05 53.03163 -29.18180 36401 ft 438 kts 266°
2026-05-04 18:06 53.02621 -29.33326 36401 ft 438 kts 266°
2026-05-04 18:06 53.02249 -29.43426 36399 ft 438 kts 266°
2026-05-04 18:07 53.01869 -29.53519 36406 ft 438 kts 266°
2026-05-04 18:07 53.01480 -29.63613 36403 ft 438 kts 266°
2026-05-04 18:08 53.01085 -29.73639 36400 ft 438 kts 266°
2026-05-04 18:08 53.00679 -29.83728 36410 ft 438 kts 266°
2026-05-04 18:09 53.00199 -30.03914 36405 ft 437 kts 272°
2026-05-04 18:10 53.00557 -30.13990 36399 ft 438 kts 274°
2026-05-04 18:10 53.00976 -30.24078 36402 ft 438 kts 274°
2026-05-04 18:11 53.01390 -30.34159 36395 ft 438 kts 274°
2026-05-04 18:11 53.01786 -30.44250 36403 ft 438 kts 274°
2026-05-04 18:12 53.02169 -30.54349 36398 ft 438 kts 274°
2026-05-04 18:12 53.02542 -30.64446 36394 ft 438 kts 274°
2026-05-04 18:13 53.02907 -30.74544 36402 ft 438 kts 274°